Regional Weather Roundup
Issued by NWS Sioux Falls, SD

Home | Current Version | Previous Version | Text Only | Print | Product List | Glossary Off
Versions: 1 2 3 4 5 6 7 8 9 10 11 12 13 14 15 16 17 18 19 20 21 22 23 24 25 26 27 28 29 30 31 32 33 34 35 36 37 38 39 40 41 42 43 44 45 46 47 48 49 50

000
ASUS43 KFSD 220110
RWRFSD

WEATHER ROUNDUP FOR SE SOUTH DAKOTA/SW MINNESOTA/NW IOWA
NATIONAL WEATHER SERVICE SIOUX FALLS SD
700 PM CST WED FEB 21 2018

NOTE: "FAIR" INDICATES FEW OR NO CLOUDS BELOW 12,000 FEET WITH NO
SIGNIFICANT WEATHER AND OR OBSTRUCTIONS TO VISIBILITY.


SDZ038>040-050-052>070-220200-
SOUTHEAST SOUTH DAKOTA

CITY           SKY/WX    TMP DP  RH WIND       PRES   REMARKS
BROOKINGS      MOCLDY    11   2  67 S9        30.54R WCI  -2
CHAMBERLAIN    FAIR      16   8  68 E10       30.44R WCI   4
HURON          FAIR      12   3  67 SE12      30.51R WCI  -2
MADISON        CLOUDY    10   1  67 SE6       30.52R WCI   1
MITCHELL       MOCLDY    14   5  67 SE13      30.53S WCI   0
SIOUX FALLS    MOCLDY    14   3  61 SE6       30.56R WCI   5
WINNER         FAIR      17   7  64 E12       30.40R WCI   4
YANKTON        MOCLDY    15   6  67 E6        30.56R WCI   6
$$

MNZ071-072-080-081-089-090-097-098-220200-
SOUTHWEST MINNESOTA

CITY           SKY/WX    TMP DP  RH WIND       PRES   REMARKS
FAIRMONT       MOCLDY    13   5  70 E3        30.63R
JACKSON        CLOUDY    14   7  73 E5        30.58R WCI   6
LUVERNE        MOCLDY    10   3  72 CALM      30.58R
MARSHALL       FAIR       9   2  73 S5        30.59R WCI   1
MONTEVIDEO     FAIR      12   0  57 CALM      30.59F
PIPESTONE      FAIR      10   1  67 S5        30.53S WCI   2
REDWOOD FALLS  FAIR      12   2  64 S3        30.60F
TRACY          FAIR       9   3  77 S3        30.57S
WORTHINGTON    CLOUDY    13   8  81 SE5       30.57R WCI   5
$$

IAZ001>003-012>014-020>022-031-032-NEZ013-014-SDZ071-220200-
NORTHWEST IOWA

CITY           SKY/WX    TMP DP  RH WIND       PRES   REMARKS
CHEROKEE       FAIR      20  14  77 SE3       30.59S
DENISON        CLOUDY    21  14  73 E8        30.59F WCI  12
ESTHERVILLE    MOCLDY    15   8  73 SE5       30.60R WCI   8
LE MARS        FAIR      18  10  73 CALM      30.59S
ORANGE CITY    FAIR      16  10  79 CALM      30.57S
SHELDON        FAIR      14   9  79 SE3       30.57R
SIOUX CITY     MOCLDY    19   8  62 NE5       30.59R WCI  12
SPENCER        MIX PCPN  17   9  70 E6        30.60R WCI   9
STORM LAKE     FAIR      18  10  73 SE7       30.57F WCI   8
$$

ABBREVIATIONS USED IN REMARKS
   TC - TEMPERATURE IN CELSIUS
  WCI - WIND CHILL INDEX
   HX - HEAT INDEX
  VSB - VISIBILITY




USA.gov is the U.S. government's official web portal to all federal, state and local government web resources and services.